Location: Ebersheim
(48.3033°N, 7.4991°E)
Time: 20:17:37
(UTC+00:00)

Resurs 01 Rocket - Pass Details

Date: 27 February 2020
Orbit: 634 x 645 km, 98.0° (Epoch: 03 April)

Event Time Altitude Azimuth Distance (km) Brightness Sun altitude
Exits shadow 19:11:22 29° 39° (NE) 1,169 2.7 -20.9°
Drops below altitude 10° 19:14:18 10° 3° (N) 2,043 4.3 -21.3°
Sets 19:16:40 0° 354° (N) 2,955 5.3 -21.7°
